Theta_e
304 305 306 306 307 307 306 304 303 303 303 301 300 299 298 297 297 297 297 297 296 295 295 294 293 294 293 292 291 292 292 291 289 290 292 292 291 290 291 290 290 289 290
300 301 301 301 300 300 299 296 296 296 296 293 293 292 291 291 292 294 293 293 292 291 291 289 287 288 286 286 285 285 286 287 286 283 286 286 286 288 288 288 288 289 288
296 295 295 295 294 293 292 291 291 291 290 289 289 288 287 286 287 288 289 288 286 285 285 284 284 284 282 282 282 285 284 286 286 284 283 285 285 284 285 286 286 287 287
293 293 292 291 291 290 289 289 289 288 287 286 285 284 284 284 284 284 284 283 283 283 283 282 282 282 282 282 283 282 282 283 284 283 283 282 284 284 284 283 283 285 284
290 289 288 288 287 287 286 285 285 285 284 284 284 283 284 283 283 283 283 282 281 281 282 283 282 283 286 286 283 284 284 283 282 282 281 282 282 282 281 283 282 282 284
288 287 286 285 285 284 284 284 284 283 283 283 283 284 284 285 289 288 284 282 282 282 282 281 282 281 283 286 286 286 285 283 282 281 281 280 281 282 283 282 282 282 279
285 284 284 284 284 284 283 283 282 282 282 281 282 283 284 284 289 288 286 282 282 281 281 282 282 282 281 282 284 286 285 287 287 284 282 282 282 283 283 282 281 280 280
284 284 283 283 283 282 281 281 280 280 281 281 281 283 284 286 288 287 285 282 281 281 282 282 281 281 282 282 280 277 279 280 282 282 280 283 284 285 284 282 282 281 281
284 284 283 283 282 281 280 280 279 280 279 278 281 283 283 285 287 287 284 281 282 281 282 281 280 280 285 286 279 276 277 280 284 285 287 287 288 288 286 281 279 278 277
285 284 283 282 281 281 280 279 276 277 279 280 281 279 278 281 287 286 283 280 277 279 280 281 282 281 285 285 277 274 272 277 277 278 281 284 284 282 283 280 278 277 277
281 280 280 279 280 279 277 274 277 277 277 275 276 275 276 277 283 286 285 281 279 277 277 277 279 284 283 282 281 274 276 277 275 274 275 277 280 280 279 279 279 278 277
280 279 277 277 278 277 276 274 275 276 275 274 275 275 275 277 283 285 285 284 283 276 277 278 279 280 279 279 276 278 276 272 265 267 269 270 272 273 275 277 278 280 280
278 276 275 275 276 276 276 275 275 276 276 275 276 276 276 277 277 283 283 283 281 277 277 278 278 277 275 271 275 274 267 263 263 261 265 268 270 271 272 272 273 274 277
276 275 273 274 273 274 277 277 278 277 276 276 276 276 277 276 276 276 277 277 279 274 273 269 273 272 273 269 266 267 265 265 264 264 265 267 267 267 267 269 268 272 271
275 274 274 274 275 275 276 278 278 274 278 277 277 278 276 276 277 279 277 274 272 271 263 260 258 260 261 263 261 262 260 260 261 263 262 263 264 264 265 266 267 266 267
274 274 274 274 274 275 276 276 280 279 281 281 281 279 278 280 281 282 280 279 277 274 260 257 258 261 262 262 258 258 259 259 261 261 258 261 261 262 262 263 264 264 264
275 274 274 274 274 275 276 276 275 279 282 282 282 281 280 280 281 281 279 278 276 271 259 260 261 260 259 259 257 258 258 259 257 257 256 257 259 259 260 260 261 261 262
274 275 275 275 276 276 276 277 277 277 277 278 282 281 281 280 280 279 278 273 264 261 257 257 256 256 257 256 256 255 255 254 254 255 255 254 254 255 256 258 259 258 259
274 274 276 276 276 276 276 276 277 276 276 275 270 278 277 280 279 278 277 263 261 258 257 254 254 255 255 254 252 250 250 250 251 249 250 249 252 251 252 253 257 257 257
271 274 276 275 274 273 273 273 274 273 273 272 272 273 267 269 273 266 262 260 260 259 258 256 254 252 252 249 248 247 247 247 247 247 248 248 250 249 251 252 252 255 255
273 275 274 274 272 272 272 272 272 272 271 270 270 268 270 269 268 266 262 258 259 257 256 254 253 251 248 246 246 246 246 248 246 246 245 246 246 247 249 252 251 250 251
271 273 272 273 272 270 270 271 271 270 270 268 264 265 275 266 264 262 260 260 257 254 253 252 251 250 250 249 250 249 247 247 245 245 246 246 246 246 246 248 247 249 249
271 270 269 268 268 269 268 267 268 267 267 267 266 265 265 267 264 261 260 258 254 251 248 247 249 250 249 248 248 250 250 250 250 247 247 247 245 246 245 246 247 246 246
270 270 269 269 268 267 268 267 267 266 267 266 265 265 265 263 261 259 257 255 250 248 246 247 248 250 249 249 248 247 247 248 244 247 247 246 247 245 244 244 247 248 249
269 268 268 268 267 267 268 267 267 266 266 266 264 263 262 261 259 257 255 252 251 250 250 249 248 249 250 250 250 248 247 253 250 248 245 243 246 245 245 244 246 245 246
267 268 269 269 268 268 268 267 267 266 265 264 264 262 260 260 259 257 255 252 251 251 251 251 250 249 249 250 249 251 254 257 253 252 249 247 247 248 247 247 247 248 247
Wind_Speed
3 3 6 6 7 6 7 7 7 7 7 8 7 7 7 7 6 8 7 6 7 7 6 7 6 4 4 4 4 3 4 3 3 3 4 6 6 8 10 8 7 7 7
3 4 5 6 6 7 7 7 6 7 7 7 7 7 7 7 7 8 7 6 7 7 5 6 5 4 6 5 4 5 4 4 3 7 5 5 6 8 8 9 8 8 7
4 5 5 6 6 6 6 6 6 9 7 6 7 8 7 7 8 7 7 7 7 6 6 6 6 6 5 4 4 5 3 5 5 5 7 6 5 5 8 6 8 8 6
6 6 6 6 6 6 6 6 7 7 8 6 6 7 7 7 7 7 7 7 7 6 6 6 6 5 6 5 5 4 3 6 6 6 7 6 6 6 7 9 10 8 9
6 6 6 6 6 6 7 7 7 7 6 6 8 7 7 6 5 7 7 7 7 7 6 6 6 6 8 7 3 5 6 5 6 8 7 8 9 10 11 9 10 11 9
7 7 6 6 7 6 6 7 7 7 6 6 6 7 8 5 14 13 9 7 6 6 6 5 5 5 5 6 6 7 6 4 5 7 8 10 11 10 8 9 10 12 12
7 6 6 6 7 7 6 7 7 6 5 6 5 7 8 7 15 15 14 7 7 6 6 4 3 2 3 3 6 8 8 11 10 6 7 8 9 8 9 10 11 10 12
8 9 8 8 8 7 7 7 6 5 7 7 5 6 9 8 15 15 14 6 6 5 5 4 3 3 4 4 1 3 4 4 4 2 4 8 9 7 6 8 11 12 10
12 13 12 12 11 10 9 9 5 7 5 3 4 6 8 8 13 13 9 4 5 5 5 5 4 3 6 10 2 3 4 4 7 17 18 18 19 17 16 8 9 11 12
14 12 10 10 11 11 9 8 3 4 5 6 6 2 4 6 13 12 8 4 4 3 4 4 6 5 10 12 6 4 5 8 9 9 8 7 8 9 15 7 7 10 9
8 9 9 8 8 7 7 3 6 6 7 5 6 3 3 3 8 12 10 3 3 3 3 2 2 7 11 12 12 5 7 9 9 7 5 5 7 8 7 7 9 9 9
11 10 9 9 8 8 10 6 7 9 9 6 7 4 1 2 7 8 9 7 8 4 3 1 2 8 10 11 8 12 13 9 3 4 4 5 7 8 9 10 11 10 8
11 10 9 8 7 9 11 10 8 8 8 8 6 6 4 2 1 9 8 9 8 4 3 5 8 9 11 9 11 12 7 3 3 4 3 5 6 8 11 9 10 11 10
10 10 9 10 9 7 6 7 9 9 7 7 7 6 6 3 3 3 2 3 7 5 7 4 7 9 10 7 3 6 3 4 2 1 4 5 5 5 6 7 8 10 10
10 10 9 7 9 9 5 8 7 3 8 9 8 8 9 8 6 8 7 4 3 6 5 3 3 3 3 3 2 2 2 2 2 4 3 5 5 6 7 8 7 8 7
11 9 9 8 7 6 7 5 6 7 9 9 11 9 3 8 14 13 11 11 10 12 3 2 1 2 2 1 2 2 2 3 3 3 2 4 5 7 7 7 7 6 7
11 10 8 8 8 9 8 9 9 7 11 12 13 14 12 12 14 13 12 11 9 7 2 3 3 3 3 2 3 2 0 1 2 2 2 3 4 4 5 6 6 6 7
6 11 10 9 9 9 9 9 8 10 11 9 14 12 14 14 15 15 15 11 3 0 2 3 4 3 3 3 2 3 1 2 1 1 2 3 3 3 4 5 6 6 7
7 7 8 7 7 8 7 7 7 7 8 8 2 11 9 16 14 14 16 4 4 4 4 4 3 3 4 3 3 2 3 2 1 1 2 2 3 2 3 3 5 7 7
4 7 8 7 7 7 7 8 7 7 7 8 8 8 5 2 9 4 3 2 3 3 4 4 3 2 4 4 3 2 3 2 1 1 2 2 3 2 3 3 3 5 6
5 7 10 7 8 9 8 9 8 8 8 8 8 7 14 8 8 6 5 5 5 4 4 4 3 4 4 4 2 3 4 3 2 3 3 3 2 3 3 3 3 4 4
5 6 7 8 7 8 8 8 8 9 9 9 6 6 21 7 6 6 6 5 5 3 3 4 4 5 5 4 4 5 5 4 2 3 4 3 3 4 3 3 3 3 3
6 6 6 5 5 6 6 6 7 7 7 7 7 8 7 7 7 7 7 6 5 4 4 4 4 4 4 5 5 5 5 6 5 4 4 4 4 4 3 3 3 3 2
7 9 9 8 7 7 6 6 7 8 8 7 7 8 9 6 6 6 5 4 4 3 3 4 4 7 4 5 5 5 5 5 3 5 7 4 5 4 3 3 4 4 4
7 8 9 9 9 10 10 10 9 8 8 7 7 6 6 6 6 6 5 4 4 4 5 5 5 8 9 9 9 8 8 10 6 7 5 5 7 6 5 3 4 3 3
7 8 8 7 8 8 9 9 9 9 9 8 7 7 6 7 6 6 5 4 4 5 5 5 6 10 9 8 10 9 10 11 9 10 6 5 6 6 5 6 7 4 5
Wind_Direction
136 116 121 124 117 118 119 119 119 114 118 97 101 98 92 93 87 89 83 88 90 84 70 78 69 58 61 51 46 36 43 17 299 307 340 333 336 330 329 327 329 322 329
129 119 112 107 109 119 121 116 115 116 96 110 112 106 103 96 92 97 99 95 98 94 91 89 79 68 62 46 47 43 31 7 348 320 312 330 327 321 321 321 320 325 322
137 127 118 119 121 119 116 117 116 109 107 110 113 110 107 108 110 115 118 108 94 87 83 76 65 62 56 46 46 37 16 3 355 325 321 323 311 313 324 307 326 309 296
150 142 139 138 133 129 122 117 114 113 117 113 105 111 115 110 97 94 96 96 94 92 93 96 93 83 80 57 40 31 14 7 354 338 327 313 325 328 326 324 326 319 316
150 143 145 134 123 119 117 115 112 107 113 120 118 106 103 103 112 114 114 109 102 91 82 82 75 72 57 52 56 24 15 1 346 342 335 335 336 339 341 330 314 317 316
154 156 145 134 126 127 126 122 112 114 124 117 110 121 112 107 116 117 111 103 96 94 85 67 66 61 50 54 28 16 4 339 345 335 331 330 327 325 320 323 317 328 326
150 144 143 143 139 139 132 127 126 129 125 115 120 123 114 110 114 115 114 112 114 116 120 111 93 45 7 331 328 348 333 331 328 318 305 306 308 303 302 314 315 312 309
162 163 159 156 151 142 135 135 132 142 142 140 143 135 125 117 121 123 120 121 121 127 123 129 92 41 357 357 352 329 292 293 295 273 272 295 289 280 301 315 311 305 300
181 177 172 166 157 154 158 156 143 142 130 110 124 130 124 122 129 127 119 112 108 105 99 92 93 44 354 352 347 318 331 315 347 336 322 318 319 332 328 325 323 319 317
186 174 162 160 162 166 158 152 122 117 117 123 122 102 108 126 137 131 119 115 113 104 91 80 35 0 6 4 42 17 0 341 348 338 325 342 336 329 328 326 315 315 312
143 142 152 152 151 146 128 102 127 117 111 107 113 84 95 118 132 138 136 134 138 111 88 52 10 20 40 28 34 26 3 354 345 344 326 333 348 340 330 328 320 310 307
141 152 151 147 148 144 138 131 131 134 131 130 128 112 85 96 145 143 133 131 114 110 103 72 54 53 57 45 44 28 19 14 336 346 4 352 342 335 331 328 317 311 287
146 151 147 141 144 151 146 145 141 148 151 155 155 153 159 172 101 143 144 124 108 102 104 96 86 73 63 45 41 35 25 354 8 17 351 341 332 321 321 324 322 312 309
154 151 146 150 144 144 150 162 158 162 160 161 164 164 160 180 152 151 123 104 113 98 100 73 84 74 64 59 20 22 1 14 354 317 346 312 311 330 330 340 330 335 323
153 152 155 153 163 159 162 169 173 161 176 173 179 168 172 181 188 171 156 139 135 141 103 51 39 46 36 29 354 332 349 331 10 5 351 339 347 341 342 342 337 333 331
157 160 162 158 161 161 156 137 164 162 179 190 176 165 179 151 171 168 164 164 164 147 70 131 132 116 144 171 306 313 340 8 6 349 325 351 350 348 338 330 335 334 329
169 164 159 157 164 164 167 163 156 168 169 165 167 177 168 167 172 167 168 162 173 146 133 184 163 170 183 196 208 219 254 354 324 308 323 340 348 324 321 324 330 328 333
167 169 170 170 170 169 176 175 169 170 171 168 189 180 181 181 179 174 172 134 142 149 160 180 177 171 204 206 208 192 244 308 282 322 354 351 322 296 312 327 329 329 330
168 174 176 174 173 174 172 175 171 167 170 167 129 174 193 187 188 183 188 162 180 190 183 196 176 173 212 203 213 197 202 225 235 348 339 316 297 290 297 296 311 322 316
168 174 178 170 166 163 171 175 171 173 173 183 181 180 148 142 193 171 156 184 194 205 175 179 170 193 227 210 201 213 245 239 239 234 248 266 279 272 279 290 293 319 322
179 175 176 173 180 180 182 188 188 184 186 193 194 176 178 186 189 190 189 200 206 199 179 186 175 206 221 212 186 212 233 240 208 229 233 249 256 280 264 271 283 282 293
185 183 186 193 186 183 190 190 191 192 197 191 178 183 197 187 185 191 197 210 207 194 175 175 194 204 207 199 202 218 229 229 223 234 241 236 246 258 260 264 280 274 282
193 183 188 187 187 181 181 183 190 189 198 195 174 173 197 192 188 195 197 198 195 193 186 185 208 230 217 219 207 212 220 227 218 197 225 238 248 253 231 254 262 286 270
205 199 194 192 183 186 203 205 197 194 194 194 187 187 188 190 185 190 193 195 187 202 176 199 211 229 227 232 225 213 227 236 192 217 211 215 243 241 231 231 246 248 265
209 200 198 194 193 196 196 193 192 198 202 190 190 190 181 183 187 198 197 194 194 200 210 207 218 233 234 242 243 229 225 241 221 205 198 197 231 228 228 226 238 249 240
219 223 221 212 208 204 207 202 201 193 194 190 186 184 182 193 200 195 184 194 214 219 221 219 226 235 237 239 245 247 243 241 233 224 205 201 221 230 211 232 244 233 236